FW3687 Weather Reports


time (UTC)temp
C
wind
direction
speed
KPH
gust
KPH
rain 1hr
cm
rain 24hr
cm
rain mn
cm
humidity
%
barometer
mb
20260510190557 17 28 4.8 9.7 0.00 0.00 0.00 52 1019.1
20260510190056 17 43 0.0 9.7 0.00 0.00 0.00 51 1019.2
20260510185555 17 329 6.4 12.9 0.00 0.00 0.00 51 1019.4
20260510185056 17 42 0.0 14.5 0.00 0.00 0.00 51 1019.5
20260510184556 17 12 0.0 14.5 0.00 0.00 0.00 51 1019.7
20260510184056 17 26 0.0 9.7 0.00 0.00 0.00 52 1019.8
20260510183555 17 344 0.0 9.7 0.00 0.00 0.00 51 1019.7
20260510183056 17 346 3.2 9.7 0.00 0.00 0.00 52 1019.6
20260510182555 17 315 1.6 9.7 0.00 0.00 0.00 52 1019.4
20260510182056 16 304 8.0 12.9 0.00 0.00 0.00 52 1019.1
20260510181556 16 320 6.4 16.1 0.00 0.00 0.00 52 1018.8
20260510181055 16 17 3.2 16.1 0.00 0.00 0.00 53 1019.0
20260510180555 16 311 3.2 16.1 0.00 0.00 0.00 53 1018.9
20260510180056 16 341 8.0 16.1 0.00 0.00 0.00 52 1018.9
20260510175555 16 5 0.0 12.9 0.00 0.00 0.00 53 1018.8
20260510174556 17 82 1.6 17.7 0.00 0.00 0.00 52 1018.7
20260510174055 17 349 3.2 16.1 0.00 0.00 0.00 52 1019.2
20260510173556 17 355 8.0 19.3 0.00 0.00 0.00 52 1019.5
20260510173056 17 302 14.5 19.3 0.00 0.00 0.00 51 1019.7
20260510172556 17 321 4.8 19.3 0.00 0.00 0.00 50 1019.8
20260510171555 17 346 9.7 17.7 0.00 0.00 0.00 50 1019.6
20260510170556 17 347 6.4 14.5 0.00 0.00 0.00 50 1019.4
20260510170056 18 345 6.4 16.1 0.00 0.00 0.00 50 1019.2
20260510165055 18 355 14.5 22.5 0.00 0.00 0.00 50 1019.0
20260510164556 18 15 12.9 17.7 0.00 0.00 0.00 49 1018.7
20260510163555 18 348 16.1 16.1 0.00 0.00 0.00 50 1018.2
20260510163057 18 351 4.8 8.0 0.00 0.00 0.00 50 1018.2
20260510162556 17 5 1.6 6.4 0.00 0.00 0.00 50 1018.1
20260510161556 17 19 0.0 6.4 0.00 0.00 0.00 51 1017.9
20260510160555 17 341 0.0 6.4 0.00 0.00 0.00 51 1017.8
20260510160056 17 342 1.6 8.0 0.00 0.00 0.00 51 1017.5
20260510155555 17 51 4.8 14.5 0.00 0.00 0.00 51 1017.4
20260510155055 17 326 4.8 14.5 0.00 0.00 0.00 50 1017.3
20260510154556 17 329 4.8 14.5 0.00 0.00 0.00 50 1017.1
20260510154056 17 45 0.0 14.5 0.00 0.00 0.00 50 1017.0
20260510153555 17 28 6.4 16.1 0.00 0.00 0.00 49 1017.1
20260510153056 17 5 9.7 16.1 0.00 0.00 0.00 49 1016.9
20260510152556 17 360 0.0 9.7 0.00 0.00 0.00 49 1016.7
20260510152057 17 5 0.0 9.7 0.00 0.00 0.00 49 1016.8
20260510151557 17 355 4.8 8.0 0.00 0.00 0.00 49 1016.6
20260510150556 17 16 3.2 8.0 0.00 0.00 0.00 49 1016.5
20260510150057 17 18 3.2 8.0 0.00 0.00 0.00 49 1016.4
20260510145555 17 5 4.8 8.0 0.00 0.00 0.00 49 1016.2
20260510145056 17 18 1.6 9.7 0.00 0.00 0.00 49 1016.2
20260510144556 17 315 1.6 9.7 0.00 0.00 0.00 49 1016.2
20260510144055 17 329 0.0 9.7 0.00 0.00 0.00 49 1016.1
20260510143056 17 345 4.8 6.4 0.00 0.00 0.00 50 1015.9
20260510142556 17 325 0.0 3.2 0.00 0.00 0.00 50 1015.9
20260510142055 17 325 0.0 6.4 0.00 0.00 0.00 51 1016.0
20260510141056 17 342 1.6 6.4 0.00 0.00 0.00 52 1016.6
20260510140555 17 10 4.8 4.8 0.00 0.00 0.00 53 1016.5
20260510140056 17 9 0.0 3.2 0.00 0.00 0.00 53 1016.2
20260510135557 17 9 0.0 4.8 0.00 0.00 0.00 54 1016.2
20260510135055 17 9 0.0 4.8 0.00 0.00 0.00 54 1016.5
20260510134556 17 9 0.0 0.0 0.00 0.00 0.00 54 1016.3
20260510134057 17 9 0.0 0.0 0.00 0.00 0.00 53 1016.4
20260510133056 17 9 0.0 0.0 0.00 0.00 0.00 53 1016.4
20260510132555 16 9 0.0 0.0 0.00 0.00 0.00 53 1016.4
20260510131055 16 9 0.0 3.2 0.00 0.00 0.00 53 1016.5
20260510130556 16 9 0.0 3.2 0.00 0.00 0.00 53 1016.6
20260510130056 16 9 0.0 0.0 0.00 0.00 0.00 53 1016.6
20260510125555 16 9 0.0 0.0 0.00 0.00 0.00 53 1016.4
20260510125055 16 9 0.0 0.0 0.00 0.00 0.00 53 1016.0
20260510124556 16 9 0.0 0.0 0.00 0.00 0.00 53 1015.7
20260510124055 16 5 0.0 0.0 0.00 0.00 0.00 53 1015.6
20260510123555 16 5 0.0 0.0 0.00 0.00 0.00 53 1015.5
20260510123057 16 5 0.0 0.0 0.00 0.00 0.00 53 1015.6
20260510122555 16 5 0.0 0.0 0.00 0.00 0.00 53 1015.2
20260510122055 16 5 0.0 0.0 0.00 0.00 0.00 53 1014.8
20260510121555 16 5 0.0 0.0 0.00 0.00 0.00 54 1014.8
20260510121055 16 5 0.0 0.0 0.00 0.00 0.00 54 1014.5
20260510120556 16 5 0.0 0.0 0.00 0.00 0.00 54 1014.4
20260510120056 16 5 0.0 0.0 0.00 0.00 0.00 55 1014.3
20260510114556 16 5 0.0 1.6 0.00 0.00 0.00 56 1014.1
20260510114056 16 5 0.0 1.6 0.00 0.00 0.00 57 1013.9
20260510113056 16 9 0.0 0.0 0.00 0.00 0.00 57 1013.5
20260510112555 16 5 0.0 0.0 0.00 0.00 0.00 57 1013.4
20260510112055 16 5 0.0 0.0 0.00 0.00 0.00 57 1013.4
20260510111556 16 5 0.0 0.0 0.00 0.00 0.00 58 1013.1
20260510111055 16 5 0.0 0.0 0.00 0.00 0.00 58 1013.1
20260510110555 17 5 0.0 0.0 0.00 0.00 0.00 58 1013.2
20260510105055 17 5 0.0 0.0 0.00 0.03 0.00 58 1012.7
20260510104556 17 5 0.0 0.0 0.00 0.03 0.00 58 1012.8
20260510104056 17 5 0.0 0.0 0.00 0.03 0.00 58 1012.8
20260510103556 17 5 0.0 0.0 0.00 0.03 0.00 57 1012.7
20260510101555 17 5 0.0 1.6 0.00 0.03 0.00 57 1012.5
20260510101056 17 5 0.0 1.6 0.00 0.03 0.00 57 1012.4
20260510100555 17 5 0.0 1.6 0.00 0.03 0.00 57 1012.4
20260510100057 17 5 0.0 1.6 0.00 0.03 0.00 57 1012.4
20260510095055 17 5 0.0 0.0 0.00 0.03 0.00 56 1012.4
20260510094556 17 5 0.0 0.0 0.00 0.03 0.00 56 1012.3
20260510094055 17 5 0.0 0.0 0.00 0.03 0.00 56 1012.2
20260510093555 18 5 0.0 0.0 0.00 0.03 0.00 56 1012.3
20260510092055 18 5 0.0 0.0 0.00 0.03 0.00 55 1012.3
20260510091555 18 5 0.0 0.0 0.00 0.03 0.00 55 1012.3
20260510091055 18 5 0.0 0.0 0.00 0.03 0.00 54 1012.1
20260510085556 18 5 0.0 0.0 0.00 0.03 0.00 53 1011.6
20260510085055 19 5 0.0 3.2 0.00 0.03 0.00 53 1011.4
20260510084555 19 5 1.6 4.8 0.00 0.03 0.00 52 1011.4
20260510083557 19 331 3.2 4.8 0.00 0.03 0.00 52 1011.1
20260510083056 19 330 0.0 1.6 0.00 0.03 0.00 52 1011.0
20260510082557 20 330 0.0 3.2 0.00 0.03 0.00 51 1010.6
20260510082056 20 330 0.0 6.4 0.00 0.03 0.00 51 1010.7
20260510081555 20 329 0.0 8.0 0.00 0.03 0.00 51 1010.4
20260510081056 20 42 0.0 8.0 0.00 0.03 0.00 51 1010.3
20260510080556 20 351 8.0 8.0 0.00 0.03 0.00 51 1010.5
20260510080055 20 5 0.0 6.4 0.00 0.03 0.00 51 1010.3
20260510075055 20 143 0.0 14.5 0.00 0.03 0.00 51 1008.9
20260510074556 20 150 4.8 19.3 0.00 0.03 0.00 51 1008.4
20260510074055 19 170 9.7 22.5 0.00 0.03 0.00 51 1008.0
20260510073555 20 132 6.4 22.5 0.00 0.03 0.00 52 1007.7
20260510073055 20 169 11.3 22.5 0.00 0.03 0.00 51 1009.4
20260510071555 20 169 1.6 17.7 0.00 0.03 0.00 50 1011.5
20260510070555 20 221 1.6 22.5 0.00 0.03 0.00 49 1011.0
20260510070055 20 156 16.1 22.5 0.00 0.03 0.00 48 1010.7
20260510065556 21 167 12.9 22.5 0.00 0.03 0.00 47 1011.0
20260510065055 21 153 8.0 14.5 0.00 0.03 0.00 47 1011.7
20260510064555 21 195 1.6 20.9 0.00 0.03 0.00 47 1012.8
20260510064055 20 148 3.2 20.9 0.00 0.03 0.00 49 1013.4
20260510062555 21 296 0.0 6.4 0.00 0.03 0.00 50 1012.7
20260510062055 21 313 3.2 8.0 0.00 0.03 0.00 50 1012.6
20260510061556 20 350 4.8 8.0 0.00 0.03 0.00 49 1012.4
20260510061055 20 355 4.8 8.0 0.00 0.03 0.00 50 1012.4
20260510060555 20 23 0.0 3.2 0.00 0.03 0.00 50 1012.3
20260510060055 20 23 1.6 3.2 0.00 0.03 0.00 50 1012.6
20260510055556 21 23 0.0 0.0 0.00 0.03 0.00 50 1012.9
20260510055055 21 23 0.0 0.0 0.00 0.03 0.00 49 1013.2
20260510054555 21 23 0.0 1.6 0.00 0.03 0.00 49 1013.3
20260510054055 21 23 0.0 1.6 0.00 0.03 0.00 49 1013.4
20260510052555 21 19 0.0 6.4 0.00 0.03 0.00 48 1013.4
20260510052055 21 32 3.2 6.4 0.00 0.03 0.00 49 1013.4
20260510051555 21 17 1.6 6.4 0.00 0.03 0.00 51 1013.3
20260510051055 20 46 1.6 6.4 0.00 0.03 0.00 50 1013.1
20260510050556 20 360 0.0 3.2 0.00 0.03 0.00 51 1013.0
20260510050059 20 162 0.0 0.0 0.00 0.03 0.00 51 1012.8
20260510045555 20 162 0.0 0.0 0.00 0.03 0.03 51 1012.6
20260510045054 20 162 0.0 0.0 0.00 0.03 0.03 51 1012.2
20260510044556 20 162 0.0 0.0 0.00 0.03 0.03 51 1012.2
20260510044055 20 163 0.0 1.6 0.00 0.03 0.03 51 1012.2
20260510043554 20 163 0.0 1.6 0.00 0.03 0.03 51 1012.1
20260510043055 20 163 0.0 1.6 0.00 0.03 0.03 51 1012.0
20260510042554 20 163 0.0 0.0 0.00 0.03 0.03 51 1011.8
20260510041555 20 163 0.0 0.0 0.00 0.03 0.03 51 1011.6
20260510041054 20 163 0.0 0.0 0.00 0.03 0.03 51 1011.6
20260510040554 20 163 0.0 0.0 0.00 0.03 0.03 50 1011.5
20260510040056 20 163 0.0 0.0 0.00 0.03 0.03 50 1011.4
20260510035554 20 163 0.0 0.0 0.00 0.03 0.03 51 1011.4
20260510035054 20 163 0.0 0.0 0.00 0.03 0.03 49 1011.4
20260510034555 20 163 0.0 0.0 0.00 0.03 0.03 50 1011.3
20260510034055 20 163 0.0 0.0 0.00 0.03 0.03 49 1011.3
20260510033555 20 163 0.0 0.0 0.00 0.03 0.03 50 1011.3
20260510033056 20 163 0.0 0.0 0.00 0.03 0.03 50 1011.4
20260510032554 20 163 0.0 0.0 0.00 0.03 0.03 49 1011.5
20260510031555 20 163 0.0 0.0 0.00 0.03 0.03 48 1011.4
20260510031054 20 163 0.0 0.0 0.00 0.03 0.03 48 1011.4
20260510030556 20 163 0.0 0.0 0.00 0.03 0.03 48 1011.4
20260510030056 20 163 0.0 0.0 0.00 0.03 0.03 47 1011.4
20260510025555 20 163 0.0 0.0 0.00 0.03 0.03 47 1011.4
20260510025055 20 163 0.0 0.0 0.00 0.03 0.03 47 1011.3
20260510024556 20 163 0.0 0.0 0.00 0.03 0.03 47 1011.1
20260510024055 20 163 0.0 0.0 0.00 0.03 0.03 46 1010.9
20260510023554 21 163 0.0 0.0 0.00 0.03 0.03 45 1010.8
20260510023056 21 163 0.0 0.0 0.00 0.03 0.03 45 1010.3
20260510022554 21 163 0.0 0.0 0.00 0.03 0.03 44 1010.2
20260510022055 21 163 0.0 0.0 0.00 0.03 0.03 44 1010.1
20260510021555 21 163 0.0 0.0 0.00 0.03 0.03 43 1009.9
20260510021054 21 163 0.0 0.0 0.00 0.03 0.03 43 1009.7
20260510020554 22 163 0.0 0.0 0.00 0.03 0.03 42 1009.7
20260510015055 22 163 0.0 0.0 0.00 0.03 0.03 39 1009.4
20260510014555 23 163 0.0 0.0 0.00 0.03 0.03 38 1009.3
20260510013554 23 163 0.0 0.0 0.00 0.03 0.03 37 1009.3
20260510013056 23 163 0.0 0.0 0.00 0.03 0.03 37 1009.2
20260510011555 24 163 0.0 1.6 0.00 0.03 0.03 34 1009.0
20260510011055 25 163 0.0 1.6 0.00 0.03 0.03 33 1009.0
20260510010554 25 163 1.6 1.6 0.00 0.03 0.03 32 1009.0
20260510005554 25 163 0.0 3.2 0.00 0.46 0.03 32 1008.9
20260510005055 25 163 0.0 3.2 0.00 0.46 0.03 31 1008.9
20260510004611 25 163 1.6 3.2 0.00 0.46 0.03 31 1008.8
20260510003055 26 169 0.0 6.4 0.00 0.46 0.03 33 1008.7
20260510002555 26 184 4.8 9.7 0.00 0.46 0.03 33 1008.6
20260510002055 26 174 1.6 11.3 0.00 0.46 0.03 32 1008.6
20260510001555 26 182 3.2 8.0 0.00 0.46 0.03 33 1008.6
20260510001055 26 176 1.6 8.0 0.00 0.46 0.03 33 1008.6
20260510000556 26 167 6.4 16.1 0.00 0.46 0.03 33 1008.6
20260510000055 26 175 1.6 16.1 0.00 0.46 0.03 32 1008.7
20260509235555 26 178 1.6 9.7 0.00 1.12 0.03 31 1008.6
20260509235056 26 161 1.6 9.7 0.00 1.12 0.03 31 1008.8
20260509233555 27 174 1.6 12.9 0.00 1.12 0.03 28 1008.8
20260509233055 27 182 3.2 12.9 0.00 1.12 0.03 27 1008.8
20260509232555 27 159 6.4 12.9 0.00 1.12 0.03 26 1008.8
20260509232055 27 178 3.2 16.1 0.00 1.12 0.03 25 1008.8
20260509231555 27 175 9.7 16.1 0.00 1.12 0.03 25 1008.8
20260509231055 27 164 8.0 9.7 0.00 1.12 0.03 24 1008.9
20260509230055 27 175 0.0 9.7 0.00 1.12 0.03 23 1009.0
20260509225555 27 167 4.8 9.7 0.00 1.12 0.03 22 1008.9
20260509225055 27 167 0.0 12.9 0.00 1.12 0.03 21 1009.0
20260509224056 27 181 3.2 12.9 0.00 1.12 0.03 24 1009.0
20260509223555 27 186 6.4 17.7 0.00 1.12 0.03 22 1009.0
20260509223055 27 170 17.7 17.7 0.00 1.12 0.03 21 1009.0
20260509222055 28 168 6.4 14.5 0.00 1.12 0.03 24 1009.0
20260509221555 28 182 11.3 14.5 0.00 1.12 0.03 23 1009.1
20260509220555 28 134 4.8 11.3 0.00 1.12 0.03 24 1009.2
20260509220055 28 180 1.6 14.5 0.00 1.12 0.03 26 1009.2
20260509215556 28 189 1.6 14.5 0.00 1.12 0.03 26 1009.2
20260509215055 28 166 6.4 9.7 0.00 1.12 0.03 23 1009.2
20260509214055 28 173 4.8 16.1 0.00 1.12 0.03 23 1009.2
20260509213554 27 150 4.8 16.1 0.00 1.12 0.03 23 1009.3
20260509212554 28 171 9.7 16.1 0.00 1.12 0.03 28 1009.3
20260509212055 27 175 0.0 12.9 0.00 1.12 0.03 30 1009.4
20260509211556 28 176 6.4 12.9 0.00 1.12 0.03 28 1009.6
20260509211055 28 167 9.7 11.3 0.00 1.12 0.03 29 1009.5
20260509210555 28 181 4.8 16.1 0.00 1.12 0.03 26 1009.7
20260509210055 28 161 1.6 16.1 0.00 1.12 0.03 24 1009.8
20260509205555 28 170 1.6 11.3 0.00 1.12 0.03 22 1009.8
20260509204556 28 182 0.0 6.4 0.00 1.12 0.03 20 1009.9
20260509204055 28 166 1.6 9.7 0.00 1.12 0.03 20 1009.9
20260509203555 28 177 0.0 14.5 0.00 1.12 0.03 17 1009.9
20260509203055 28 168 1.6 12.9 0.00 1.12 0.03 19 1010.0
20260509202555 28 168 0.0 11.3 0.00 1.12 0.03 26 1009.9
20260509202054 28 170 3.2 9.7 0.00 1.12 0.03 24 1010.0
20260509201556 28 160 0.0 6.4 0.00 1.12 0.03 25 1010.1
20260509201054 28 5 0.0 6.4 0.00 1.12 0.03 21 1010.1
20260509200555 28 148 0.0 11.3 0.00 1.12 0.03 24 1010.1
20260509200055 28 182 0.0 11.3 0.00 1.12 0.03 24 1010.2
20260509195556 28 171 1.6 8.0 0.00 1.12 0.03 24 1010.3
20260509195055 28 184 3.2 9.7 0.00 1.12 0.03 23 1010.3
20260509194555 28 157 0.0 9.7 0.00 1.12 0.03 22 1010.3
20260509194054 28 165 1.6 9.7 0.00 1.12 0.03 22 1010.4
20260509193055 28 176 4.8 9.7 0.00 1.12 0.03 20 1010.6
20260509192555 27 169 0.0 9.7 0.00 1.12 0.03 18 1010.6
20260509191555 27 178 0.0 9.7 0.00 1.12 0.03 26 1010.7
20260509191055 27 177 3.2 11.3 0.00 1.12 0.03 25 1010.6